Location: Bletchingley
(51.2333°N, 0.1000°W)
Time: 13:54:22
(UTC+00:00)

In-Cosmos 22 - Pass Details

Date: 18 September 2020
Orbit: 785 x 876 km, 81.2° (Epoch: 25 October)

Event Time Altitude Azimuth Distance (km) Brightness Sun altitude
Rises 19:07:06 0° 349° (N) 3,291 7.7 -10.1°
Reaches altitude 10° 19:09:32 10° 353° (N) 2,357 6.8 -10.5°
Maximum altitude 19:14:46 59° 73° (ENE) 911 4.1 -11.3°
Drops below altitude 10° 19:20:00 10° 153° (SSE) 2,363 6.1 -12.1°
Enters shadow 19:21:21 - 156° (SSE) 2,879 6.6 -12.3°
